This is the latest recevied weather packets stored in our database for station/object AC5JC-1. If no packets are shown the sender has not sent any weather packets the latest 10 day(s).
| Time | Temp. | Humidity | Pressure | Rain* | Wind** | Luminosity | Snow |
|---|---|---|---|---|---|---|---|
| 1777724135 | 10° C | 99% | 1021.3 hPa | 0 mm | - | 18 W/m² | - |
| 1777722344 | 10° C | 99% | 1020.8 hPa | 0 mm | - | 2 W/m² | - |
| 1777720872 | 10° C | 99% | 1020.6 hPa | 0 mm | - | 0 W/m² | - |
| 1777719934 | 10° C | 99% | 1020.5 hPa | 0 mm | - | 0 W/m² | - |
| 1777719635 | 10° C | 99% | 1020.3 hPa | 0 mm | - | 0 W/m² | - |
| 1777717534 | 9.44° C | 98% | 1020.2 hPa | 0 mm | - | 0 W/m² | - |
| 1777716328 | 10° C | 97% | 1020.2 hPa | 0 mm | - | 0 W/m² | - |
| 1777715434 | 10.56° C | 97% | 1020 hPa | 0 mm | - | 0 W/m² | - |
| 1777711834 | 10.56° C | 97% | 1019.9 hPa | 0 mm | - | 0 W/m² | - |
| 1777710954 | 10.56° C | 97% | 1019.8 hPa | 0 mm | - | 0 W/m² | - |
| 1777710655 | 10.56° C | 97% | 1020 hPa | 0 mm | - | 0 W/m² | - |
| 1777708234 | 10.56° C | 96% | 1020 hPa | 0 mm | - | 0 W/m² | - |
| 1777707975 | 10.56° C | 95% | 1019.9 hPa | 0 mm | - | 0 W/m² | - |
| 1777707334 | 10.56° C | 95% | 1019.9 hPa | 0 mm | - | 0 W/m² | - |
| 1777705534 | 10.56° C | 95% | 1020.1 hPa | 0 mm | - | 0 W/m² | - |
| 1777705234 | 10.56° C | 95% | 1020.1 hPa | 0 mm | - | 0 W/m² | - |
| 1777704345 | 10.56° C | 95% | 1020.1 hPa | 0 mm | - | 0 W/m² | - |
| 1777701368 | 11.67° C | 94% | 1019.9 hPa | 0 mm | - | 0 W/m² | - |
| 1777701038 | 11.67° C | 94% | 1019.9 hPa | 0 mm | - | 0 W/m² | - |
| 1777699835 | 12.22° C | 94% | 1019.9 hPa | 0 mm | - | 0 W/m² | - |
| 1777693256 | 13.89° C | 94% | 1019.5 hPa | 0 mm | - | 0 W/m² | - |
| 1777691433 | 13.89° C | 92% | 1019.4 hPa | 0 mm | - | 0 W/m² | - |
| 1777689960 | 14.44° C | 91% | 1019 hPa | 0 mm | - | 0 W/m² | - |
| 1777686396 | 15° C | 87% | 1018 hPa | 0 mm | - | 0 W/m² | - |
| 1777685135 | 15.56° C | 85% | 1017.9 hPa | 0 mm | - | 0 W/m² | - |
* Rain latest hour (hover to see other rain measurements)
** Current wind speed in m/s (hover to see current wind gust speed)